Location: Bottens
(46.6171°N, 6.6605°E)
Time: 14:27:15
(UTC+00:00)

Meteor 1-29 - Pass Details

Date: 20 June 2021
Orbit: 434 x 457 km, 97.7° (Epoch: 31 July)

Event Time Altitude Azimuth Distance (km) Brightness Sun altitude
Rises 01:19:14 0° 22° (NNE) 2,482 8.5 -16.1°
Reaches altitude 10° 01:21:26 10° 33° (NNE) 1,599 7.0 -15.9°
Maximum altitude 01:24:32 31° 97° (E) 816 4.3 -15.7°
Enters shadow 01:26:30 18° 150° (SSE) 1,189 4.7 -15.5°
